Location: Miles
(41.4492°N, 81.6087°W)
Time: 11:55:48
(UTC+00:00)

Transit 4A - Visible Passes

Search period start: 07 September 2024 00:00
Search period end: 17 September 2024 00:00
Orbit: 867 x 975 km, 66.8° (Epoch: 06 September)

Date Brightness Start Highest point End Pass type
(mag) Time Alt. Az. Time Alt. Az. Time Alt. Az.
07 Sep 9.8 08:47:30 10° SSE 08:51:52 22° ESE 08:56:20 10° ENE visible
07 Sep 8.0 10:31:59 10° SW 10:37:42 57° NW 10:43:35 10° NNE visible
08 Sep 9.2 08:55:48 12° S 09:00:37 34° ESE 09:05:53 10° NE visible
09 Sep 8.5 09:05:22 19° S 09:09:26 51° ESE 09:15:10 10° NE visible
10 Sep 7.9 09:14:49 25° SSW 09:18:20 76° ESE 09:24:17 10° NNE visible
11 Sep 9.9 07:40:40 16° ESE 07:41:44 17° ESE 07:45:17 10° ENE visible
11 Sep 7.7 09:24:12 29° SW 09:27:18 74° WNW 09:33:17 10° NNE visible
12 Sep 9.4 07:49:58 25° ESE 07:50:25 25° ESE 07:55:10 10° NE visible
12 Sep 8.1 09:33:30 28° WSW 09:36:21 51° NW 09:42:11 10° NNE visible
13 Sep 8.8 07:59:12 38° ESE 07:59:12 38° ESE 08:04:38 10° NE visible
13 Sep 8.5 09:42:43 24° W 09:45:30 36° NW 09:51:00 10° NNE visible
14 Sep 8.2 08:08:22 57° E 08:08:22 57° E 08:13:51 10° NE visible
14 Sep 9.0 09:51:53 19° W 09:54:44 26° NW 09:59:44 10° N visible
15 Sep 7.9 08:17:29 74° NE 08:17:29 74° NE 08:22:56 10° NNE visible
15 Sep 9.4 10:00:59 14° WNW 10:04:03 20° NW 10:08:21 10° N visible
16 Sep 10.3 06:43:02 14° ENE 06:43:02 14° ENE 06:44:14 10° ENE visible
16 Sep 8.0 08:26:32 62° NNW 08:26:32 62° NNW 08:31:54 10° NNE visible
16 Sep 9.7 10:10:13 10° WNW 10:13:28 15° NW 10:16:47 10° N visible
